Year,Month,Day,Hour,Minute,Value (Times are PST for temperature in C)
2006,10,10,00,00,8.70
2006,10,10,00,01,8.70
2006,10,10,00,02,8.70
2006,10,10,00,03,8.70
2006,10,10,00,04,8.70
2006,10,10,00,05,8.70
2006,10,10,00,06,8.70
2006,10,10,00,07,8.70
2006,10,10,00,08,8.60
2006,10,10,00,09,8.60
2006,10,10,00,10,8.60
2006,10,10,00,11,8.60
2006,10,10,00,12,8.60
2006,10,10,00,13,8.50
2006,10,10,00,14,8.50
2006,10,10,00,15,8.50
2006,10,10,00,16,8.50
2006,10,10,00,17,8.50
2006,10,10,00,18,8.50
2006,10,10,00,19,8.60
2006,10,10,00,20,8.60
2006,10,10,00,21,8.60
2006,10,10,00,22,8.50
2006,10,10,00,23,8.50
2006,10,10,00,24,8.50
2006,10,10,00,25,8.40
2006,10,10,00,26,8.40
2006,10,10,00,27,8.40
2006,10,10,00,28,8.40
2006,10,10,00,29,8.40
2006,10,10,00,30,8.30
2006,10,10,00,31,8.30
2006,10,10,00,32,8.30
2006,10,10,00,33,8.30
2006,10,10,00,34,8.30
2006,10,10,00,35,8.30
2006,10,10,00,36,8.30
2006,10,10,00,37,8.20
2006,10,10,00,38,8.20
2006,10,10,00,39,8.20
2006,10,10,00,40,8.30
2006,10,10,00,41,8.30
2006,10,10,00,42,8.30
2006,10,10,00,43,8.30
2006,10,10,00,44,8.30
2006,10,10,00,45,8.30
2006,10,10,00,46,8.30
2006,10,10,00,47,8.30
2006,10,10,00,48,8.30
2006,10,10,00,49,8.30
2006,10,10,00,50,8.30
2006,10,10,00,51,8.40
2006,10,10,00,52,8.40
2006,10,10,00,53,8.30
2006,10,10,00,54,8.30
2006,10,10,00,55,8.30
2006,10,10,00,56,8.30
2006,10,10,00,57,8.30
2006,10,10,00,58,8.30
2006,10,10,00,59,8.20
2006,10,10,01,00,8.20
2006,10,10,01,01,8.20
2006,10,10,01,02,8.20
2006,10,10,01,03,8.20
2006,10,10,01,04,8.20
2006,10,10,01,05,8.20
2006,10,10,01,06,8.20
2006,10,10,01,07,8.20
2006,10,10,01,08,8.20
2006,10,10,01,09,8.20
2006,10,10,01,10,8.20
2006,10,10,01,11,8.20
2006,10,10,01,12,8.20
2006,10,10,01,13,8.20
2006,10,10,01,14,8.20
2006,10,10,01,15,8.20
2006,10,10,01,16,8.20
2006,10,10,01,17,8.20
2006,10,10,01,18,8.20
2006,10,10,01,19,8.20
2006,10,10,01,20,8.20
2006,10,10,01,21,8.20
2006,10,10,01,22,8.10
2006,10,10,01,23,8.10
2006,10,10,01,24,8.10
2006,10,10,01,25,8.10
2006,10,10,01,26,8.10
2006,10,10,01,27,8.10
2006,10,10,01,28,8.10
2006,10,10,01,29,8.10
2006,10,10,01,30,8.10
2006,10,10,01,31,8.10
2006,10,10,01,32,8.10
2006,10,10,01,33,8.10
2006,10,10,01,34,8.10
2006,10,10,01,35,8.10
2006,10,10,01,36,8.00
2006,10,10,01,37,8.00
2006,10,10,01,38,8.00
2006,10,10,01,39,8.00
2006,10,10,01,40,8.00
2006,10,10,01,41,8.00
2006,10,10,01,42,7.90
2006,10,10,01,43,7.90
2006,10,10,01,44,7.90
2006,10,10,01,45,7.90
2006,10,10,01,46,7.90
2006,10,10,01,47,7.90
2006,10,10,01,48,7.90
2006,10,10,01,49,7.90
2006,10,10,01,50,7.90
2006,10,10,01,51,7.90
2006,10,10,01,52,7.90
2006,10,10,01,53,7.90
2006,10,10,01,54,7.90
2006,10,10,01,55,7.90
2006,10,10,01,56,7.90
2006,10,10,01,57,7.90
2006,10,10,01,58,7.90
2006,10,10,01,59,7.90
2006,10,10,02,00,7.90
2006,10,10,02,01,7.90
2006,10,10,02,02,7.90
2006,10,10,02,03,7.90
2006,10,10,02,04,7.90
2006,10,10,02,05,7.90
2006,10,10,02,06,7.80
2006,10,10,02,07,7.80
2006,10,10,02,08,7.70
2006,10,10,02,09,7.60
2006,10,10,02,10,7.60
2006,10,10,02,11,7.50
2006,10,10,02,12,7.50
2006,10,10,02,13,7.50
2006,10,10,02,14,7.50
2006,10,10,02,15,7.60
2006,10,10,02,16,7.60
2006,10,10,02,17,7.70
2006,10,10,02,18,7.70
2006,10,10,02,19,7.80
2006,10,10,02,20,7.80
2006,10,10,02,21,7.80
2006,10,10,02,22,7.80
2006,10,10,02,23,7.80
2006,10,10,02,24,7.90
2006,10,10,02,25,7.90
2006,10,10,02,26,7.90
2006,10,10,02,27,7.90
2006,10,10,02,28,7.90
2006,10,10,02,29,7.90
2006,10,10,02,30,8.00
2006,10,10,02,31,8.00
2006,10,10,02,32,7.90
2006,10,10,02,33,7.90
2006,10,10,02,34,7.90
2006,10,10,02,35,7.90
2006,10,10,02,36,7.90
2006,10,10,02,37,7.90
2006,10,10,02,38,7.80
2006,10,10,02,39,7.80
2006,10,10,02,40,7.80
2006,10,10,02,41,7.80
2006,10,10,02,42,7.80
2006,10,10,02,43,7.80
2006,10,10,02,44,7.80
2006,10,10,02,45,7.80
2006,10,10,02,46,7.80
2006,10,10,02,47,7.80
2006,10,10,02,48,7.80
2006,10,10,02,49,7.80
2006,10,10,02,50,7.80
2006,10,10,02,51,7.80
2006,10,10,02,52,7.80
2006,10,10,02,53,7.80
2006,10,10,02,54,7.80
2006,10,10,02,55,7.80
2006,10,10,02,56,7.70
2006,10,10,02,57,7.70
2006,10,10,02,58,7.70
2006,10,10,02,59,7.70
2006,10,10,03,00,7.70
2006,10,10,03,01,7.70
2006,10,10,03,02,7.70
2006,10,10,03,03,7.70
2006,10,10,03,04,7.70
2006,10,10,03,05,7.70
2006,10,10,03,06,7.70
2006,10,10,03,07,7.60
2006,10,10,03,08,7.60
2006,10,10,03,09,7.60
2006,10,10,03,10,7.60
2006,10,10,03,11,7.60
2006,10,10,03,12,7.60
2006,10,10,03,13,7.60
2006,10,10,03,14,7.60
2006,10,10,03,15,7.60
2006,10,10,03,16,7.60
2006,10,10,03,17,7.50
2006,10,10,03,18,7.50
2006,10,10,03,19,7.50
2006,10,10,03,20,7.50
2006,10,10,03,21,7.50
2006,10,10,03,22,7.50
2006,10,10,03,23,7.50
2006,10,10,03,24,7.50
2006,10,10,03,25,7.50
2006,10,10,03,26,7.50
2006,10,10,03,27,7.50
2006,10,10,03,28,7.50
2006,10,10,03,29,7.50
2006,10,10,03,30,7.50
2006,10,10,03,31,7.40
2006,10,10,03,32,7.40
2006,10,10,03,33,7.40
2006,10,10,03,34,7.30
2006,10,10,03,35,7.30
2006,10,10,03,36,7.30
2006,10,10,03,37,7.30
2006,10,10,03,38,7.30
2006,10,10,03,39,7.30
2006,10,10,03,40,7.30
2006,10,10,03,41,7.30
2006,10,10,03,42,7.30
2006,10,10,03,43,7.30
2006,10,10,03,44,7.40
2006,10,10,03,45,7.40
2006,10,10,03,46,7.40
2006,10,10,03,47,7.30
2006,10,10,03,48,7.30
2006,10,10,03,49,7.30
2006,10,10,03,50,7.30
2006,10,10,03,51,7.30
2006,10,10,03,52,7.30
2006,10,10,03,53,7.30
2006,10,10,03,54,7.30
2006,10,10,03,55,7.30
2006,10,10,03,56,7.30
2006,10,10,03,57,7.30
2006,10,10,03,58,7.20
2006,10,10,03,59,7.20
2006,10,10,04,00,7.20
2006,10,10,04,01,7.20
2006,10,10,04,02,7.20
2006,10,10,04,03,7.20
2006,10,10,04,04,7.20
2006,10,10,04,05,7.20
2006,10,10,04,06,7.20
2006,10,10,04,07,7.20
2006,10,10,04,08,7.20
2006,10,10,04,09,7.20
2006,10,10,04,10,7.20
2006,10,10,04,11,7.20
2006,10,10,04,12,7.20
2006,10,10,04,13,7.20
2006,10,10,04,14,7.20
2006,10,10,04,15,7.20
2006,10,10,04,16,7.20
2006,10,10,04,17,7.20
2006,10,10,04,18,7.20
2006,10,10,04,19,7.20
2006,10,10,04,20,7.20
2006,10,10,04,21,7.20
2006,10,10,04,22,7.20
2006,10,10,04,23,7.20
2006,10,10,04,24,7.10
2006,10,10,04,25,7.10
2006,10,10,04,26,7.10
2006,10,10,04,27,7.10
2006,10,10,04,28,7.10
2006,10,10,04,29,7.00
2006,10,10,04,30,7.00
2006,10,10,04,31,7.00
2006,10,10,04,32,7.00
2006,10,10,04,33,7.00
2006,10,10,04,34,7.00
2006,10,10,04,35,7.00
2006,10,10,04,36,7.00
2006,10,10,04,37,7.00
2006,10,10,04,38,7.10
2006,10,10,04,39,7.10
2006,10,10,04,40,7.10
2006,10,10,04,41,7.10
2006,10,10,04,42,7.10
2006,10,10,04,43,7.10
2006,10,10,04,44,7.10
2006,10,10,04,45,7.10
2006,10,10,04,46,7.10
2006,10,10,04,47,7.10
2006,10,10,04,48,7.10
2006,10,10,04,49,7.10
2006,10,10,04,50,7.10
2006,10,10,04,51,7.10
2006,10,10,04,52,7.10
2006,10,10,04,53,7.10
2006,10,10,04,54,7.10
2006,10,10,04,55,7.20
2006,10,10,04,56,7.20
2006,10,10,04,57,7.20
2006,10,10,04,58,7.20
2006,10,10,04,59,7.20
2006,10,10,05,00,7.20
2006,10,10,05,01,7.20
2006,10,10,05,02,7.20
2006,10,10,05,03,7.20
2006,10,10,05,04,7.20
2006,10,10,05,05,7.20
2006,10,10,05,06,7.10
2006,10,10,05,07,7.10
2006,10,10,05,08,7.10
2006,10,10,05,09,7.00
2006,10,10,05,10,7.00
2006,10,10,05,11,7.00
2006,10,10,05,12,7.00
2006,10,10,05,13,7.00
2006,10,10,05,14,7.00
2006,10,10,05,15,7.00
2006,10,10,05,16,7.00
2006,10,10,05,17,7.00
2006,10,10,05,18,7.00
2006,10,10,05,19,7.00
2006,10,10,05,20,7.00
2006,10,10,05,21,7.00
2006,10,10,05,22,7.00
2006,10,10,05,23,7.00
2006,10,10,05,24,6.90
2006,10,10,05,25,6.90
2006,10,10,05,26,6.90
2006,10,10,05,27,6.90
2006,10,10,05,28,6.90
2006,10,10,05,29,6.90
2006,10,10,05,30,6.90
2006,10,10,05,31,6.90
2006,10,10,05,32,6.90
2006,10,10,05,33,6.90
2006,10,10,05,34,7.00
2006,10,10,05,35,7.00
2006,10,10,05,36,7.00
2006,10,10,05,37,7.00
2006,10,10,05,38,7.00
2006,10,10,05,39,7.00
2006,10,10,05,40,7.00
2006,10,10,05,41,7.00
2006,10,10,05,42,7.00
2006,10,10,05,43,7.00
2006,10,10,05,44,7.00
2006,10,10,05,45,7.00
2006,10,10,05,46,7.00
2006,10,10,05,47,6.90
2006,10,10,05,48,6.90
2006,10,10,05,49,6.90
2006,10,10,05,50,6.90
2006,10,10,05,51,6.80
2006,10,10,05,52,6.80
2006,10,10,05,53,6.80
2006,10,10,05,54,6.80
2006,10,10,05,55,6.80
2006,10,10,05,56,6.80
2006,10,10,05,57,6.80
2006,10,10,05,58,6.80
2006,10,10,05,59,6.80
2006,10,10,06,00,6.70
2006,10,10,06,01,6.70
2006,10,10,06,02,6.70
2006,10,10,06,03,6.70
2006,10,10,06,04,6.70
2006,10,10,06,05,6.70
2006,10,10,06,06,6.70
2006,10,10,06,07,6.70
2006,10,10,06,08,6.70
2006,10,10,06,09,6.70
2006,10,10,06,10,6.70
2006,10,10,06,11,6.60
2006,10,10,06,12,6.60
2006,10,10,06,13,6.60
2006,10,10,06,14,6.60
2006,10,10,06,15,6.50
2006,10,10,06,16,6.40
2006,10,10,06,17,6.40
2006,10,10,06,18,6.40
2006,10,10,06,19,6.40
2006,10,10,06,20,6.40
2006,10,10,06,21,6.40
2006,10,10,06,22,6.40
2006,10,10,06,23,6.40
2006,10,10,06,24,6.40
2006,10,10,06,25,6.40
2006,10,10,06,26,6.40
2006,10,10,06,27,6.40
2006,10,10,06,28,6.40
2006,10,10,06,29,6.40
2006,10,10,06,30,6.40
2006,10,10,06,31,6.40
2006,10,10,06,32,6.40
2006,10,10,06,33,6.40
2006,10,10,06,34,6.40
2006,10,10,06,35,6.40
2006,10,10,06,36,6.40
2006,10,10,06,37,6.40
2006,10,10,06,38,6.40
2006,10,10,06,39,6.40
2006,10,10,06,40,6.50
2006,10,10,06,41,6.60
2006,10,10,06,42,6.60
2006,10,10,06,43,6.60
2006,10,10,06,44,6.60
2006,10,10,06,45,6.60
2006,10,10,06,46,6.60
2006,10,10,06,47,6.70
2006,10,10,06,48,6.70
2006,10,10,06,49,6.80
2006,10,10,06,50,6.80
2006,10,10,06,51,6.80
2006,10,10,06,52,6.80
2006,10,10,06,53,6.80
2006,10,10,06,54,6.80
2006,10,10,06,55,6.80
2006,10,10,06,56,6.80
2006,10,10,06,57,6.80
2006,10,10,06,58,6.80
2006,10,10,06,59,6.80
2006,10,10,07,00,6.80
2006,10,10,07,01,6.80
2006,10,10,07,02,6.80
2006,10,10,07,03,6.80
2006,10,10,07,04,6.80
2006,10,10,07,05,6.80
2006,10,10,07,06,6.80
2006,10,10,07,07,6.80
2006,10,10,07,08,6.80
2006,10,10,07,09,6.80
2006,10,10,07,10,6.80
2006,10,10,07,11,6.80
2006,10,10,07,12,6.80
2006,10,10,07,13,6.80
2006,10,10,07,14,6.80
2006,10,10,07,15,6.80
2006,10,10,07,16,6.80
2006,10,10,07,17,6.80
2006,10,10,07,18,6.80
2006,10,10,07,19,6.80
2006,10,10,07,20,6.80
2006,10,10,07,21,6.80
2006,10,10,07,22,6.80
2006,10,10,07,23,6.80
2006,10,10,07,24,6.80
2006,10,10,07,25,6.80
2006,10,10,07,26,6.80
2006,10,10,07,27,6.80
2006,10,10,07,28,6.80
2006,10,10,07,29,6.80
2006,10,10,07,30,6.90
2006,10,10,07,31,6.90
2006,10,10,07,32,7.00
2006,10,10,07,33,7.00
2006,10,10,07,34,7.00
2006,10,10,07,35,7.00
2006,10,10,07,36,7.00
2006,10,10,07,37,7.00
2006,10,10,07,38,7.00
2006,10,10,07,39,7.00
2006,10,10,07,40,7.00
2006,10,10,07,41,7.00
2006,10,10,07,42,7.00
2006,10,10,07,43,7.00
2006,10,10,07,44,7.00
2006,10,10,07,45,7.10
2006,10,10,07,46,7.10
2006,10,10,07,47,7.10
2006,10,10,07,48,7.10
2006,10,10,07,49,7.10
2006,10,10,07,50,7.10
2006,10,10,07,51,7.10
2006,10,10,07,52,7.10
2006,10,10,07,53,7.20
2006,10,10,07,54,7.20
2006,10,10,07,55,7.30
2006,10,10,07,56,7.30
2006,10,10,07,57,7.30
2006,10,10,07,58,7.30
2006,10,10,07,59,7.30
2006,10,10,08,00,7.30
2006,10,10,08,01,7.30
2006,10,10,08,02,7.30
2006,10,10,08,03,7.30
2006,10,10,08,04,7.40
2006,10,10,08,05,7.40
2006,10,10,08,06,7.40
2006,10,10,08,07,7.40
2006,10,10,08,08,7.40
2006,10,10,08,09,7.40
2006,10,10,08,10,7.40
2006,10,10,08,11,7.40
2006,10,10,08,12,7.50
2006,10,10,08,13,7.50
2006,10,10,08,14,7.50
2006,10,10,08,15,7.50
2006,10,10,08,16,7.60
2006,10,10,08,17,7.60
2006,10,10,08,18,7.60
2006,10,10,08,19,7.60
2006,10,10,08,20,7.50
2006,10,10,08,21,7.50
2006,10,10,08,22,7.50
2006,10,10,08,23,7.50
2006,10,10,08,24,7.50
2006,10,10,08,25,7.50
2006,10,10,08,26,7.50
2006,10,10,08,27,7.50
2006,10,10,08,28,7.50
2006,10,10,08,29,7.60
2006,10,10,08,30,7.60
2006,10,10,08,31,7.60
2006,10,10,08,32,7.60
2006,10,10,08,33,7.60
2006,10,10,08,34,7.60
2006,10,10,08,35,7.60
2006,10,10,08,36,7.60
2006,10,10,08,37,7.60
2006,10,10,08,38,7.70
2006,10,10,08,39,7.70
2006,10,10,08,40,7.70
2006,10,10,08,41,7.70
2006,10,10,08,42,7.70
2006,10,10,08,43,7.70
2006,10,10,08,44,7.70
2006,10,10,08,45,7.70
2006,10,10,08,46,7.70
2006,10,10,08,47,7.70
2006,10,10,08,48,7.70
2006,10,10,08,49,7.70
2006,10,10,08,50,7.70
2006,10,10,08,51,7.70
2006,10,10,08,52,7.70
2006,10,10,08,53,7.70
2006,10,10,08,54,7.70
2006,10,10,08,55,7.70
2006,10,10,08,56,7.80
2006,10,10,08,57,7.80
2006,10,10,08,58,7.80
2006,10,10,08,59,7.80
2006,10,10,09,00,7.80
2006,10,10,09,01,7.80
2006,10,10,09,02,7.80
2006,10,10,09,03,7.80
2006,10,10,09,04,7.80
2006,10,10,09,05,7.80
2006,10,10,09,06,7.80
2006,10,10,09,07,7.80
2006,10,10,09,08,7.80
2006,10,10,09,09,7.80
2006,10,10,09,10,7.80
2006,10,10,09,11,7.90
2006,10,10,09,12,7.90
2006,10,10,09,13,7.90
2006,10,10,09,14,7.90
2006,10,10,09,15,7.90
2006,10,10,09,16,7.90
2006,10,10,09,17,8.00
2006,10,10,09,18,8.00
2006,10,10,09,19,8.00
2006,10,10,09,20,8.00
2006,10,10,09,21,8.00
2006,10,10,09,22,8.00
2006,10,10,09,23,8.00
2006,10,10,09,24,8.00
2006,10,10,09,25,8.00
2006,10,10,09,26,8.10
2006,10,10,09,27,8.10
2006,10,10,09,28,8.10
2006,10,10,09,29,8.10
2006,10,10,09,30,8.10
2006,10,10,09,31,8.10
2006,10,10,09,32,8.20
2006,10,10,09,33,8.20
2006,10,10,09,34,8.20
2006,10,10,09,35,8.20
2006,10,10,09,36,8.20
2006,10,10,09,37,8.30
2006,10,10,09,38,8.30
2006,10,10,09,39,8.30
2006,10,10,09,40,8.40
2006,10,10,09,41,8.50
2006,10,10,09,42,8.50
2006,10,10,09,43,8.60
2006,10,10,09,44,8.70
2006,10,10,09,45,8.70
2006,10,10,09,46,8.80
2006,10,10,09,47,8.90
2006,10,10,09,48,8.90
2006,10,10,09,49,9.00
2006,10,10,09,50,9.10
2006,10,10,09,51,9.10
2006,10,10,09,52,9.20
2006,10,10,09,53,9.20
2006,10,10,09,54,9.30
2006,10,10,09,55,9.40
2006,10,10,09,56,9.40
2006,10,10,09,57,9.40
2006,10,10,09,58,9.50
2006,10,10,09,59,9.50
2006,10,10,10,00,9.60
2006,10,10,10,01,9.60
2006,10,10,10,02,9.70
2006,10,10,10,03,9.70
2006,10,10,10,04,9.70
2006,10,10,10,05,9.70
2006,10,10,10,06,9.80
2006,10,10,10,07,9.80
2006,10,10,10,08,9.90
2006,10,10,10,09,9.90
2006,10,10,10,10,9.90
2006,10,10,10,11,10.00
2006,10,10,10,12,10.10
2006,10,10,10,13,10.10
2006,10,10,10,14,10.10
2006,10,10,10,15,10.20
2006,10,10,10,16,10.20
2006,10,10,10,17,10.20
2006,10,10,10,18,10.30
2006,10,10,10,19,10.40
2006,10,10,10,20,10.40
2006,10,10,10,21,10.40
2006,10,10,10,22,10.50
2006,10,10,10,23,10.60
2006,10,10,10,24,10.60
2006,10,10,10,25,10.60
2006,10,10,10,26,10.60
2006,10,10,10,27,10.70
2006,10,10,10,28,10.70
2006,10,10,10,29,10.80
2006,10,10,10,30,10.90
2006,10,10,10,31,10.90
2006,10,10,10,32,11.00
2006,10,10,10,33,11.10
2006,10,10,10,34,11.10
2006,10,10,10,35,11.10
2006,10,10,10,36,11.20
2006,10,10,10,37,11.30
2006,10,10,10,38,11.30
2006,10,10,10,39,11.40
2006,10,10,10,40,11.40
2006,10,10,10,41,11.50
2006,10,10,10,42,11.60
2006,10,10,10,43,11.60
2006,10,10,10,44,11.70
2006,10,10,10,45,11.70
2006,10,10,10,46,11.80
2006,10,10,10,47,11.80
2006,10,10,10,48,11.80
2006,10,10,10,49,11.90
2006,10,10,10,50,12.00
2006,10,10,10,51,12.10
2006,10,10,10,52,12.10
2006,10,10,10,53,12.20
2006,10,10,10,54,12.30
2006,10,10,10,55,12.30
2006,10,10,10,56,12.30
2006,10,10,10,57,12.40
2006,10,10,10,58,12.40
2006,10,10,10,59,12.50
2006,10,10,11,00,12.60
2006,10,10,11,01,12.60
2006,10,10,11,02,12.70
2006,10,10,11,03,12.70
2006,10,10,11,04,12.80
2006,10,10,11,05,12.80
2006,10,10,11,06,12.80
2006,10,10,11,07,12.90
2006,10,10,11,08,12.90
2006,10,10,11,09,13.00
2006,10,10,11,10,13.00
2006,10,10,11,11,13.10
2006,10,10,11,12,13.20
2006,10,10,11,13,13.30
2006,10,10,11,14,13.30
2006,10,10,11,15,13.30
2006,10,10,11,16,13.40
2006,10,10,11,17,13.30
2006,10,10,11,18,13.30
2006,10,10,11,19,13.30
2006,10,10,11,20,13.20
2006,10,10,11,21,13.20
2006,10,10,11,22,13.20
2006,10,10,11,23,13.30
2006,10,10,11,24,13.30
2006,10,10,11,25,13.30
2006,10,10,11,26,13.40
2006,10,10,11,27,13.50
2006,10,10,11,28,13.60
2006,10,10,11,29,13.60
2006,10,10,11,30,13.60
2006,10,10,11,31,13.60
2006,10,10,11,32,13.70
2006,10,10,11,33,13.70
2006,10,10,11,34,13.60
2006,10,10,11,35,13.60
2006,10,10,11,36,13.60
2006,10,10,11,37,13.50
2006,10,10,11,38,13.60
2006,10,10,11,39,13.60
2006,10,10,11,40,13.60
2006,10,10,11,41,13.70
2006,10,10,11,42,13.70
2006,10,10,11,43,13.80
2006,10,10,11,44,13.80
2006,10,10,11,45,13.80
2006,10,10,11,46,13.80
2006,10,10,11,47,13.90
2006,10,10,11,48,13.90
2006,10,10,11,49,13.90
2006,10,10,11,50,13.90
2006,10,10,11,51,13.80
2006,10,10,11,52,13.80
2006,10,10,11,53,13.80
2006,10,10,11,54,13.80
2006,10,10,11,55,13.80
2006,10,10,11,56,13.80
2006,10,10,11,57,13.80
2006,10,10,11,58,13.90
2006,10,10,11,59,13.90
2006,10,10,12,00,14.00
2006,10,10,12,01,14.10
2006,10,10,12,02,14.10
2006,10,10,12,03,14.20
2006,10,10,12,04,14.20
2006,10,10,12,05,14.30
2006,10,10,12,06,14.30
2006,10,10,12,07,14.30
2006,10,10,12,08,14.20
2006,10,10,12,09,14.20
2006,10,10,12,10,14.20
2006,10,10,12,11,14.20
2006,10,10,12,12,14.20
2006,10,10,12,13,14.20
2006,10,10,12,14,14.30
2006,10,10,12,15,14.30
2006,10,10,12,16,14.40
2006,10,10,12,17,14.40
2006,10,10,12,18,14.50
2006,10,10,12,19,14.50
2006,10,10,12,20,14.60
2006,10,10,12,21,14.60
2006,10,10,12,22,14.70
2006,10,10,12,23,14.80
2006,10,10,12,24,14.90
2006,10,10,12,25,15.00
2006,10,10,12,26,15.00
2006,10,10,12,27,15.10
2006,10,10,12,28,15.10
2006,10,10,12,29,15.10
2006,10,10,12,30,15.20
2006,10,10,12,31,15.20
2006,10,10,12,32,15.20
2006,10,10,12,33,15.30
2006,10,10,12,34,15.30
2006,10,10,12,35,15.30
2006,10,10,12,36,15.30
2006,10,10,12,37,15.30
2006,10,10,12,38,15.30
2006,10,10,12,39,15.30
2006,10,10,12,40,15.40
2006,10,10,12,41,15.50
2006,10,10,12,42,15.60
2006,10,10,12,43,15.70
2006,10,10,12,44,15.80
2006,10,10,12,45,15.80
2006,10,10,12,46,15.70
2006,10,10,12,47,15.70
2006,10,10,12,48,15.70
2006,10,10,12,49,15.70
2006,10,10,12,50,15.70
2006,10,10,12,51,15.70
2006,10,10,12,52,15.70
2006,10,10,12,53,15.70
2006,10,10,12,54,15.80
2006,10,10,12,55,15.90
2006,10,10,12,56,15.90
2006,10,10,12,57,15.90
2006,10,10,12,58,15.80
2006,10,10,12,59,15.80
2006,10,10,13,00,15.80
2006,10,10,13,01,15.90
2006,10,10,13,02,15.90
2006,10,10,13,03,16.00
2006,10,10,13,04,16.00
2006,10,10,13,05,15.90
2006,10,10,13,06,16.00
2006,10,10,13,07,16.10
2006,10,10,13,08,16.10
2006,10,10,13,09,16.10
2006,10,10,13,10,16.20
2006,10,10,13,11,16.20
2006,10,10,13,12,16.30
2006,10,10,13,13,16.30
2006,10,10,13,14,16.30
2006,10,10,13,15,16.30
2006,10,10,13,16,16.30
2006,10,10,13,17,16.30
2006,10,10,13,18,16.30
2006,10,10,13,19,16.40
2006,10,10,13,20,16.40
2006,10,10,13,21,16.40
2006,10,10,13,22,16.40
2006,10,10,13,23,16.40
2006,10,10,13,24,16.40
2006,10,10,13,25,16.30
2006,10,10,13,26,16.20
2006,10,10,13,27,16.10
2006,10,10,13,28,16.10
2006,10,10,13,29,16.10
2006,10,10,13,30,16.10
2006,10,10,13,31,16.10
2006,10,10,13,32,16.10
2006,10,10,13,33,16.10
2006,10,10,13,34,16.10
2006,10,10,13,35,16.10
2006,10,10,13,36,16.20
2006,10,10,13,37,16.10
2006,10,10,13,38,16.20
2006,10,10,13,39,16.20
2006,10,10,13,40,16.30
2006,10,10,13,41,16.30
2006,10,10,13,42,16.40
2006,10,10,13,43,16.40
2006,10,10,13,44,16.40
2006,10,10,13,45,16.40
2006,10,10,13,46,16.50
2006,10,10,13,47,16.60
2006,10,10,13,48,16.60
2006,10,10,13,49,16.70
2006,10,10,13,50,16.70
2006,10,10,13,51,16.70
2006,10,10,13,52,16.70
2006,10,10,13,53,16.70
2006,10,10,13,54,16.70
2006,10,10,13,55,16.70
2006,10,10,13,56,16.70
2006,10,10,13,57,16.70
2006,10,10,13,58,16.80
2006,10,10,13,59,16.90
2006,10,10,14,00,16.80
2006,10,10,14,01,16.80
2006,10,10,14,02,16.80
2006,10,10,14,03,16.90
2006,10,10,14,04,17.00
2006,10,10,14,05,17.10
2006,10,10,14,06,17.10
2006,10,10,14,07,17.00
2006,10,10,14,08,16.80
2006,10,10,14,09,16.80
2006,10,10,14,10,16.80
2006,10,10,14,11,16.90
2006,10,10,14,12,16.90
2006,10,10,14,13,16.80
2006,10,10,14,14,16.90
2006,10,10,14,15,17.00
2006,10,10,14,16,17.10
2006,10,10,14,17,17.20
2006,10,10,14,18,17.20
2006,10,10,14,19,17.20
2006,10,10,14,20,17.20
2006,10,10,14,21,17.10
2006,10,10,14,22,17.10
2006,10,10,14,23,17.10
2006,10,10,14,24,17.10
2006,10,10,14,25,17.10
2006,10,10,14,26,17.20
2006,10,10,14,27,17.30
2006,10,10,14,28,17.30
2006,10,10,14,29,17.30
2006,10,10,14,30,17.30
2006,10,10,14,31,17.30
2006,10,10,14,32,17.30
2006,10,10,14,33,17.30
2006,10,10,14,34,17.40
2006,10,10,14,35,17.40
2006,10,10,14,36,17.40
2006,10,10,14,37,17.40
2006,10,10,14,38,17.30
2006,10,10,14,39,17.30
2006,10,10,14,40,17.30
2006,10,10,14,41,17.30
2006,10,10,14,42,17.30
2006,10,10,14,43,17.30
2006,10,10,14,44,17.30
2006,10,10,14,45,17.30
2006,10,10,14,46,17.30
2006,10,10,14,47,17.30
2006,10,10,14,48,17.40
2006,10,10,14,49,17.40
2006,10,10,14,50,17.40
2006,10,10,14,51,17.50
2006,10,10,14,52,17.60
2006,10,10,14,53,17.50
2006,10,10,14,54,17.40
2006,10,10,14,55,17.30
2006,10,10,14,56,17.20
2006,10,10,14,57,17.20
2006,10,10,14,58,17.20
2006,10,10,14,59,17.20
2006,10,10,15,00,17.30
2006,10,10,15,01,17.40
2006,10,10,15,02,17.50
2006,10,10,15,03,17.60
2006,10,10,15,04,17.50
2006,10,10,15,05,17.50
2006,10,10,15,06,17.50
2006,10,10,15,07,17.60
2006,10,10,15,08,17.70
2006,10,10,15,09,17.80
2006,10,10,15,10,17.80
2006,10,10,15,11,17.90
2006,10,10,15,12,18.10
2006,10,10,15,13,18.10
2006,10,10,15,14,18.10
2006,10,10,15,15,18.10
2006,10,10,15,16,18.10
2006,10,10,15,17,18.20
2006,10,10,15,18,18.20
2006,10,10,15,19,18.10
2006,10,10,15,20,18.10
2006,10,10,15,21,18.20
2006,10,10,15,22,18.20
2006,10,10,15,23,18.20
2006,10,10,15,24,18.20
2006,10,10,15,25,18.10
2006,10,10,15,26,18.00
2006,10,10,15,27,17.90
2006,10,10,15,28,17.90
2006,10,10,15,29,17.90
2006,10,10,15,30,17.80
2006,10,10,15,31,17.70
2006,10,10,15,32,17.60
2006,10,10,15,33,17.40
2006,10,10,15,34,17.40
2006,10,10,15,35,17.40
2006,10,10,15,36,17.30
2006,10,10,15,37,17.30
2006,10,10,15,38,17.30
2006,10,10,15,39,17.30
2006,10,10,15,40,17.40
2006,10,10,15,41,17.40
2006,10,10,15,42,17.40
2006,10,10,15,43,17.40
2006,10,10,15,44,17.50
2006,10,10,15,45,17.50
2006,10,10,15,46,17.50
2006,10,10,15,47,17.50
2006,10,10,15,48,17.50
2006,10,10,15,49,17.50
2006,10,10,15,50,17.60
2006,10,10,15,51,17.60
2006,10,10,15,52,17.60
2006,10,10,15,53,17.70
2006,10,10,15,54,17.70
2006,10,10,15,55,17.80
2006,10,10,15,56,17.70
2006,10,10,15,57,17.70
2006,10,10,15,58,17.60
2006,10,10,15,59,17.50
2006,10,10,16,00,17.50
2006,10,10,16,01,17.50
2006,10,10,16,02,17.60
2006,10,10,16,03,17.60
2006,10,10,16,04,17.70
2006,10,10,16,05,17.70
2006,10,10,16,06,17.80
2006,10,10,16,07,17.80
2006,10,10,16,08,17.80
2006,10,10,16,09,17.80
2006,10,10,16,10,17.90
2006,10,10,16,11,17.90
2006,10,10,16,12,17.90
2006,10,10,16,13,17.90
2006,10,10,16,14,17.90
2006,10,10,16,15,17.90
2006,10,10,16,16,17.80
2006,10,10,16,17,17.70
2006,10,10,16,18,17.50
2006,10,10,16,19,17.50
2006,10,10,16,20,17.40
2006,10,10,16,21,17.40
2006,10,10,16,22,17.40
2006,10,10,16,23,17.30
2006,10,10,16,24,17.30
2006,10,10,16,25,17.20
2006,10,10,16,26,17.20
2006,10,10,16,27,17.10
2006,10,10,16,28,17.10
2006,10,10,16,29,17.10
2006,10,10,16,30,17.10
2006,10,10,16,31,17.10
2006,10,10,16,32,17.10
2006,10,10,16,33,17.10
2006,10,10,16,34,17.10
2006,10,10,16,35,17.10
2006,10,10,16,36,17.10
2006,10,10,16,37,17.10
2006,10,10,16,38,17.10
2006,10,10,16,39,17.00
2006,10,10,16,40,17.00
2006,10,10,16,41,17.00
2006,10,10,16,42,16.90
2006,10,10,16,43,16.90
2006,10,10,16,44,16.90
2006,10,10,16,45,16.80
2006,10,10,16,46,16.80
2006,10,10,16,47,16.90
2006,10,10,16,48,16.90
2006,10,10,16,49,16.80
2006,10,10,16,50,16.80
2006,10,10,16,51,16.80
2006,10,10,16,52,16.70
2006,10,10,16,53,16.70
2006,10,10,16,54,16.70
2006,10,10,16,55,16.70
2006,10,10,16,56,16.70
2006,10,10,16,57,16.70
2006,10,10,16,58,16.70
2006,10,10,16,59,16.70
2006,10,10,17,00,16.80
2006,10,10,17,01,16.80
2006,10,10,17,02,16.80
2006,10,10,17,03,16.90
2006,10,10,17,04,16.90
2006,10,10,17,05,16.90
2006,10,10,17,06,16.80
2006,10,10,17,07,16.80
2006,10,10,17,08,16.70
2006,10,10,17,09,16.70
2006,10,10,17,10,16.70
2006,10,10,17,11,16.70
2006,10,10,17,12,16.70
2006,10,10,17,13,16.80
2006,10,10,17,14,16.80
2006,10,10,17,15,16.80
2006,10,10,17,16,16.80
2006,10,10,17,17,16.90
2006,10,10,17,18,16.90
2006,10,10,17,19,16.90
2006,10,10,17,20,16.80
2006,10,10,17,21,16.80
2006,10,10,17,22,16.70
2006,10,10,17,23,16.70
2006,10,10,17,24,16.60
2006,10,10,17,25,16.60
2006,10,10,17,26,16.60
2006,10,10,17,27,16.60
2006,10,10,17,28,16.50
2006,10,10,17,29,16.40
2006,10,10,17,30,16.40
2006,10,10,17,31,16.40
2006,10,10,17,32,16.40
2006,10,10,17,33,16.40
2006,10,10,17,34,16.40
2006,10,10,17,35,16.40
2006,10,10,17,36,16.40
2006,10,10,17,37,16.30
2006,10,10,17,38,16.30
2006,10,10,17,39,16.30
2006,10,10,17,40,16.30
2006,10,10,17,41,16.30
2006,10,10,17,42,16.20
2006,10,10,17,43,16.20
2006,10,10,17,44,16.20
2006,10,10,17,45,16.10
2006,10,10,17,46,16.10